Regional Weather Roundup
Issued by NWS

Home | Current Version | Previous Version | Text Only | Print | Product List | Glossary Off
Versions: 1 2 3 4 5 6 7 8 9 10 11 12 13 14 15 16 17 18 19 20 21 22 23 24 25 26 27 28 29 30 31 32 33 34 35 36 37 38 39 40 41 42 43 44 45 46 47 48 49 50

000
ASUS43 KMKX 021811
RWRWI

WISCONSIN REGIONAL WEATHER ROUNDUP
NATIONAL WEATHER SERVICE MILWAUKEE/SULLIVAN WI
100 PM CDT MON MAY 02 2016

NOTE: "FAIR" INDICATES FEW OR NO CLOUDS BELOW 12,000 FEET WITH NO
SIGNIFICANT WEATHER AND/OR OBSTRUCTIONS TO VISIBILITY.

WIZ001-002-006>008-014>016-023>028-021900-
NORTHWEST WISCONSIN

CITY           SKY/WX    TMP DP  RH WIND       PRES   REMARKS
SUPERIOR ARPT  SUNNY     60  35  39 E7        30.08F
6HR MIN TEMP:  31; 6HR MAX TEMP:  60;

ASHLAND        SUNNY     62  37  39 N13       30.09F
6HR MIN TEMP:  31; 6HR MAX TEMP:  63;

HAYWARD        SUNNY     62  30  29 SW5       30.07F
6HR MIN TEMP:  32; 6HR MAX TEMP:  62;

SIREN          SUNNY     61  29  29 CALM      30.07F
6HR MIN TEMP:  33; 6HR MAX TEMP:  63;

CUMBERLAND     SUNNY     61  32  33 NE3       30.08S
RICE LAKE      MOSUNNY   60  34  37 W7        30.09F
6HR MIN TEMP:  37; 6HR MAX TEMP:  61;

CHETEK         MOSUNNY   60  35  39 SW3       30.08S
6HR MIN TEMP:  39; 6HR MAX TEMP:  62;

LADYSMITH      MOSUNNY   61  33  35 CALM      30.10F
6HR MIN TEMP:  35; 6HR MAX TEMP:  62;

EAU CLAIRE     PTSUNNY   64  34  32 NW7       30.07F
6HR MIN TEMP:  40; 6HR MAX TEMP:  64;

MENOMONIE      PTSUNNY   62  34  35 SW3       30.08F
6HR MIN TEMP:  40; 6HR MAX TEMP:  66;

NEW RICHMOND   SUNNY     61  31  32 CALM      30.09S
6HR MIN TEMP:  38; 6HR MAX TEMP:  62;

OSCEOLA        SUNNY     63  34  34 S3        30.11F
6HR MIN TEMP:  35; 6HR MAX TEMP:  63;

$$

WIZ003>005-009-010-017-018-021900-
NORTH CENTRAL WISCONSIN

CITY           SKY/WX    TMP DP  RH WIND       PRES   REMARKS
MANITOWISH WTR MOSUNNY   58  32  37 CALM      30.06F
6HR MIN TEMP:  32; 6HR MAX TEMP:  60;

ARBOR VITAE    PTSUNNY   59  31  34 N7        30.07F
6HR MIN TEMP:  35; 6HR MAX TEMP:  60;

WOODRUFF       PTSUNNY   59  31  34 N7        30.07F
6HR MIN TEMP:  35; 6HR MAX TEMP:  60;

RHINELANDER    CLOUDY    57  31  37 NE6       30.08F
6HR MIN TEMP:  36; 6HR MAX TEMP:  60;

EAGLE RIVER    PTSUNNY   56  26  30 N3        30.06F
LAND O LAKES   MOSUNNY   59  28  30 N10G16    30.07F
6HR MIN TEMP:  32; 6HR MAX TEMP:  61;

PHILLIPS       MOSUNNY   59  33  38 CALM      30.07F
6HR MIN TEMP:  33; 6HR MAX TEMP:  60;

TOMAHAWK       PTSUNNY   60  30  32 CALM      30.08F
6HR MIN TEMP:  32; 6HR MAX TEMP:  61;

MEDFORD        CLOUDY    56  36  45 CALM      30.08F
6HR MIN TEMP:  36; 6HR MAX TEMP:  59;

MERRILL        PTSUNNY   58  32  37 NE3       30.08F
$$

WIZ029-030-035-036-043>047-021900-
CENTRAL WISCONSIN

CITY           SKY/WX    TMP DP  RH WIND       PRES   REMARKS
WAUSAU         MOSUNNY   63  31  30 CALM      30.05F
6HR MIN TEMP:  40; 6HR MAX TEMP:  63;

MOSINEE        PTSUNNY   57  30  35 N6        30.09F
MARSHFIELD     MOSUNNY   60  31  33 NW3       30.08F
6HR MIN TEMP:  40; 6HR MAX TEMP:  63;

STEVENS POINT  PTSUNNY   58  31  35 N8        30.08F
6HR MIN TEMP:  33; 6HR MAX TEMP:  59;

WAUPACA        SUNNY     64  29  26 N8        30.08F
6HR MIN TEMP:  38; 6HR MAX TEMP:  64;

WAUTOMA        SUNNY     62  30  29 VRB3      30.07F
6HR MIN TEMP:  37; 6HR MAX TEMP:  62;

WISC RAPIDS    MOSUNNY   63  30  28 MISG      30.09F
6HR MIN TEMP:  37; 6HR MAX TEMP:  63;

CAMP DOUGLAS   PTSUNNY   61  36  39 NW6       30.07F
$$

WIZ011>013-019>022-031-037>040-048>050-021900-
NORTHEAST WISCONSIN

CITY           SKY/WX    TMP DP  RH WIND       PRES   REMARKS
ANTIGO         PTSUNNY   57  33  39 CALM      30.07F
6HR MIN TEMP:  34; 6HR MAX TEMP:  59;

SHAWANO        SUNNY     64  28  26 NE5       30.07F
6HR MIN TEMP:  38; 6HR MAX TEMP:  65;

OCONTO         SUNNY     59  36  42 SE8       30.07F
6HR MIN TEMP:  40; 6HR MAX TEMP:  60;

STURGEON BAY   SUNNY     57  36  44 N12       30.10F
6HR MIN TEMP:  41; 6HR MAX TEMP:  59;

GREEN BAY      SUNNY     63  36  36 NE9       30.08F
6HR MIN TEMP:  42; 6HR MAX TEMP:  63; 6HR PCP: TRACE;

MANITOWOC      SUNNY     53  40  61 SE12G20   30.08F
6HR MIN TEMP:  42; 6HR MAX TEMP:  59;

APPLETON       MOSUNNY   61  28  29 NE8       30.06F
CLINTONVILLE   SUNNY     61  28  29 NE5       30.07F
OSHKOSH        SUNNY     60  35  39 E10       30.07F
6HR MIN TEMP:  41; 6HR MAX TEMP:  60;

$$

WIZ032>034-041-042-053>061-021900-
SOUTHWEST WISCONSIN

CITY           SKY/WX    TMP DP  RH WIND       PRES   REMARKS
LA CROSSE      MOSUNNY   63  34  33 VRB3      30.08F
6HR MIN TEMP:  40; 6HR MAX TEMP:  63;

SPARTA         MOSUNNY   61  35  37 E3        30.09F
6HR MIN TEMP:  32; 6HR MAX TEMP:  62;

VIROQUA        PTSUNNY   61  34  37 CALM      30.09F
6HR MIN TEMP:  40; 6HR MAX TEMP:  61;

BOSCOBEL       SUNNY     65  36  34 NE5       30.09F
6HR MIN TEMP:  36; 6HR MAX TEMP:  65;

PRAIRIE DU CHI PTSUNNY   58  39  50 CALM      30.09F
6HR MIN TEMP:  39; 6HR MAX TEMP:  59;

PLATTEVILLE    MOSUNNY   59  41  50 N5        30.08F
6HR MIN TEMP:  44; 6HR MAX TEMP:  60;

$$

WIZ056-057-062-063-064-067-068-021900-
SOUTH CENTRAL WISCONSIN

CITY           SKY/WX    TMP DP  RH WIND       PRES   REMARKS
REEDSBURG      PTSUNNY   58  34  40 N6        30.08F
6HR MIN TEMP:  35; 6HR MAX TEMP:  59;

BARABOO/DELLS  MOSUNNY   58  30  33 CALM      30.08F
6HR MIN TEMP:  36; 6HR MAX TEMP:  60;

LONE ROCK      MOSUNNY   62  36  37 NE7       30.09F
6HR MIN TEMP:  36; 6HR MAX TEMP:  62;

MINERAL POINT  PTSUNNY   61  32  33 NE7       30.07F
MADISON        PTSUNNY   60  39  45 NE8G25    30.07F
6HR MIN TEMP:  42; 6HR MAX TEMP:  61;

MIDDLETON      MOSUNNY   61  40  44 NE10      30.08S
6HR MIN TEMP:  43; 6HR MAX TEMP:  61;

WATERTOWN      MOSUNNY   61  38  41 N7        30.06S
6HR MIN TEMP:  42; 6HR MAX TEMP:  61;

MONROE         MOSUNNY   59  37  44 NE10G17   30.07S
JANESVILLE     PTSUNNY   61  36  39 N10       30.06S
$$

WIZ051-052-058>065-066-070>072-021900-
SOUTHEAST WISCONSIN

CITY           SKY/WX    TMP DP  RH WIND       PRES   REMARKS
MILWAUKEE      PTSUNNY   52  38  58 N9        30.07F
6HR MIN TEMP:  44; 6HR MAX TEMP:  53;

WAUKESHA       PTSUNNY   57  36  44 NE9G17    30.06F
MILWAUKEE/TIMM SUNNY     55  30  38 NE10G18   30.07F
RACINE         MOSUNNY   53  38  56 N14       30.08F
6HR MIN TEMP:  44; 6HR MAX TEMP:  54;

BURLINGTON     CLOUDY    58  32  38 NE13G22   30.06S
6HR MIN TEMP:  42; 6HR MAX TEMP:  59;

KENOSHA        MOSUNNY   59  38  45 NE14G20   30.06S
6HR MIN TEMP:  44; 6HR MAX TEMP:  59;

FOND DU LAC    SUNNY     60  37  42 NE10      30.08F
6HR MIN TEMP:  42; 6HR MAX TEMP:  60;

SHEBOYGAN      SUNNY     58  40  51 E9        30.07F
6HR MIN TEMP:  43; 6HR MAX TEMP:  58;

WEST BEND      CLOUDY    59  32  36 NE12      30.05F
JUNEAU         PTSUNNY   58  35  41 N7        30.07F
6HR MIN TEMP:  41; 6HR MAX TEMP:  59;

$$

LSZ147-162-021900-
LAKE SUPERIOR

STATION/POSITION TIME  TEMP    WIND        PRES    WAVE
                       AIR SEA DIR/SP/G            HT/PER
                 (UTC) (F)     (DEG/KT/KT) (MB)    (FT/S)
W MID LAKE BUOY  1750   38 37  210/  4/  6 1020.4F   0
DEVILS ISLAND    1800   45     110/  6/  8 1019.8F
SAXON HARBOR     1700   42      30/  4/  5 1019.6
$$

LMZ867-665-643>646-021900-
LAKE MICHIGAN

STATION/POSITION TIME  TEMP    WIND        PRES    WAVE
                       AIR SEA DIR/SP/G            HT/PER
                 (UTC) (F)     (DEG/KT/KT) (MB)    (FT/S)
CHAMBERS ISLAND  1700   52      70/  5/  8 1018.6F
N MID LAKE BUOY  1750   41 39  250/  2/  2 1018.7F   0
NORTC1F1C2F2C3F3C4F4C5F5C6F6C7F7C8M1C9M2Ca!



USA.gov is the U.S. government's official web portal to all federal, state and local government web resources and services.